Location: Devore Heights
(34.2372°N, 117.4156°W)
Time: 07:04:11
(UTC+00:00)

Vanguard 1 Rocket - Pass Details

Date: 18 September 2024
Orbit: 650 x 4218 km, 34.3° (Epoch: 09 October)

Event Time Altitude Azimuth Distance (km) Brightness Sun altitude
Rises 13:41:19 0° 275° (W) 6,106 10.9 0.4°
Reaches altitude 10° 13:44:36 10° 276° (W) 5,462 10.7 1.1°
Maximum altitude 14:03:34 88° 190° (S) 3,883 10.7 5.0°
Drops below altitude 10° 14:30:23 10° 104° (ESE) 7,243 14.5 10.5°
Sets 14:35:36 0° 105° (ESE) 8,059 14.2 11.6°
